ECMWFFLT1_sfc_temp_096.txt.gz
Temp
73 73 74 73 74 74 72 72 72 73 75 76 74 75 75 74 74 73 73 72 70 68 68 68 68 69 69 69 67 67 68 67 66 65 64 64 62 63 66 66 66 68 68 68 66 61 60 58 59 63 64 64 64 66 67 66 65 67 66 67 68 68 68
74 74 76 76 74 73 72 71 72 73 74 74 75 74 74 75 74 73 73 73 71 69 68 68 69 69 68 67 66 65 65 66 65 66 66 64 64 64 64 64 66 65 66 66 67 65 60 59 60 60 60 63 64 65 66 67 66 68 67 67 67 68 68
74 74 75 74 73 72 71 71 71 71 72 72 73 74 74 75 75 74 73 73 72 72 70 69 69 69 68 66 66 65 66 66 66 66 66 66 66 67 66 65 64 64 65 64 64 63 63 63 59 60 62 59 58 62 65 64 66 68 69 68 67 66 68
73 73 71 72 71 71 71 71 70 71 72 72 72 72 73 74 74 73 69 71 72 72 71 70 69 67 67 66 66 66 67 67 66 66 66 67 67 66 66 65 64 65 63 63 63 63 62 60 60 61 62 62 63 61 63 66 67 70 70 69 69 67 68
73 72 71 71 71 71 71 70 70 70 70 71 71 71 71 73 73 72 72 72 71 70 71 70 69 69 68 67 66 66 67 67 67 66 65 65 66 66 66 65 65 66 65 64 64 63 62 61 61 61 62 62 63 65 66 65 68 70 69 69 70 71 70
72 73 72 72 72 71 70 69 69 69 69 69 69 68 69 69 69 69 70 69 68 68 70 71 68 70 69 66 65 66 66 66 66 66 65 65 65 65 65 66 65 65 65 66 66 64 64 63 63 59 62 63 61 62 65 65 64 67 68 67 68 73 71
71 72 72 72 72 72 71 70 70 70 69 69 69 68 68 69 68 68 68 67 67 67 69 69 69 69 68 66 66 65 66 66 66 66 65 66 65 66 66 65 65 65 65 66 66 66 65 63 61 60 61 61 61 62 66 65 67 66 64 67 67 69 71
71 71 71 72 72 72 72 72 71 71 70 71 70 70 70 69 70 69 67 66 66 67 69 68 67 68 68 67 66 66 66 66 66 65 65 65 65 65 65 66 66 65 66 67 67 66 67 66 65 62 61 59 59 60 60 62 63 64 65 67 70 70 72
71 71 71 71 72 72 71 71 72 72 72 72 72 72 72 71 70 69 66 66 67 67 66 68 69 66 66 65 66 65 65 67 65 65 64 65 65 65 65 67 67 66 66 67 68 67 68 66 66 63 64 64 62 57 59 59 61 63 65 64 70 68 71
70 69 70 70 71 72 72 71 71 72 72 72 72 72 71 71 70 69 68 67 67 66 67 67 68 68 66 65 65 65 65 66 65 65 64 64 64 65 66 67 66 66 66 67 68 69 69 68 68 68 69 67 66 62 57 57 60 59 63 68 64 64 68
69 70 70 70 71 71 71 72 72 72 72 72 72 72 71 70 70 70 69 67 67 67 67 67 67 67 65 65 66 66 65 65 65 64 65 65 65 65 65 67 67 66 67 67 67 68 68 69 69 70 68 66 65 62 63 60 60 63 63 66 66 65 68
69 70 70 71 71 71 71 71 71 72 72 72 72 71 70 69 70 69 69 68 66 65 65 66 67 66 65 65 66 65 66 66 65 64 65 65 65 65 65 66 67 67 68 67 67 68 69 69 69 70 70 68 67 64 65 62 59 62 67 62 65 70 69
70 70 70 70 69 70 71 71 72 71 71 72 72 71 71 71 70 69 69 68 66 66 66 65 66 66 65 65 65 64 65 66 65 65 65 66 67 67 67 67 67 67 68 68 67 68 68 69 70 69 68 66 67 67 67 64 63 61 64 65 65 67 70
68 69 69 69 68 69 70 71 71 72 72 71 71 71 71 70 71 70 70 68 67 66 64 65 65 65 65 64 64 65 66 65 65 65 66 65 67 68 67 67 68 68 69 67 67 67 68 69 70 69 67 66 66 68 67 65 63 61 63 66 67 67 70
68 68 67 67 67 68 69 69 70 71 71 71 71 71 71 70 70 69 68 67 67 66 66 65 65 65 65 64 64 65 65 65 65 66 66 66 66 68 68 68 69 69 69 68 68 70 69 69 70 67 66 67 67 65 67 67 65 63 61 65 65 69 67
67 67 66 67 66 67 68 69 70 69 70 71 71 70 70 70 69 69 69 67 66 66 65 65 65 65 65 65 64 64 64 64 63 65 65 66 68 68 67 67 67 67 68 67 68 69 69 68 67 67 67 66 64 62 63 63 65 63 63 63 66 67 67
66 66 65 66 66 67 68 68 70 70 71 70 70 70 70 70 70 70 68 67 66 66 65 64 65 66 65 65 64 64 65 65 65 66 66 66 67 67 66 66 66 67 67 67 68 67 67 66 65 65 64 63 64 64 65 65 66 66 64 63 65 68 68
65 65 66 66 67 68 68 69 69 70 70 70 71 70 70 70 69 68 66 67 66 65 65 65 65 64 64 64 65 65 64 64 64 65 66 66 68 67 66 65 67 67 67 66 66 66 66 66 66 65 63 64 64 64 64 63 65 66 65 64 65 68 67
65 65 66 67 68 68 68 67 68 68 69 68 70 70 70 69 69 69 69 67 67 66 66 66 65 65 65 65 64 64 64 64 64 65 65 66 67 67 66 65 66 66 67 66 65 66 65 66 66 64 63 62 62 63 62 63 63 64 67 67 66 65 68
65 65 66 67 68 68 67 66 65 65 66 66 65 67 69 69 69 68 68 68 66 66 67 66 65 65 65 65 64 64 63 64 64 64 65 65 66 66 66 66 66 65 64 64 66 65 65 65 62 63 63 62 62 63 62 62 63 64 64 66 66 66 67
64 66 67 68 67 66 65 64 64 63 63 62 63 64 64 66 68 68 67 67 66 66 66 66 65 65 64 64 64 64 64 63 64 64 64 65 66 65 65 65 65 65 65 66 65 65 66 63 64 62 63 64 63 62 62 61 61 61 63 64 65 63 64
65 66 67 67 66 65 64 63 62 62 61 60 61 62 64 65 67 67 67 65 65 65 65 65 65 65 64 64 64 64 64 64 64 63 64 64 64 64 64 64 65 65 65 66 62 62 63 64 65 63 63 65 64 62 60 60 59 59 60 64 63 65 63
66 66 66 66 64 63 63 62 61 60 59 59 59 61 62 63 64 64 64 65 64 64 64 65 63 58 58 64 64 63 63 63 64 63 63 63 64 65 65 64 64 65 61 60 58 54 55 57 62 65 65 65 64 61 60 60 59 60 61 60 61 61 61
65 65 65 65 63 62 61 60 59 58 57 57 57 57 59 59 60 61 62 64 63 63 63 64 53 49 49 53 63 64 63 63 64 63 63 63 64 63 64 63 62 61 58 58 54 48 49 52 53 55 57 58 62 63 61 60 60 59 58 60 60 59 61
62 63 64 63 62 61 60 59 58 57 56 55 55 55 55 55 57 59 60 60 61 62 63 55 47 46 45 46 53 63 62 62 62 62 62 62 63 63 62 62 61 61 62 60 57 54 50 45 45 45 44 46 51 55 56 63 61 59 60 59 59 60 62
62 62 62 62 61 60 59 57 56 55 55 55 54 53 53 53 53 55 56 57 57 56 55 43 41 41 44 45 48 58 62 62 61 62 62 63 64 62 62 62 61 63 63 59 60 59 57 53 48 47 47 48 47 49 51 52 54 63 63 61 60 60 62
61 61 61 60 60 58 57 55 55 55 54 54 52 52 52 51 51 52 53 54 55 54 52 44 39 41 40 41 42 50 64 62 62 63 63 62 61 61 61 60 60 61 62 61 61 60 61 61 61 62 61 60 59 54 49 48 50 52 59 64 63 61 62
60 60 60 59 58 56 55 55 54 53 53 52 51 50 51 50 49 50 50 51 52 52 51 42 39 39 41 40 40 49 62 63 62 62 62 62 62 62 62 62 61 61 62 62 61 60 61 63 62 59 57 56 53 51 52 56 60 64 64 62 58 56 58
59 59 59 57 56 55 54 54 53 53 53 52 51 51 51 50 48 48 48 48 48 49 50 43 40 39 40 41 46 60 62 62 61 60 57 56 57 58 61 61 60 59 60 61 55 51 57 62 61 59 57 55 53 52 49 46 43 52 57 58 56 53 51
57 58 57 55 54 54 54 53 53 53 52 51 50 50 49 49 49 48 47 47 46 47 47 44 40 40 40 44 54 61 60 59 58 56 55 54 53 53 56 61 61 60 60 56 48 47 49 55 60 59 57 55 55 54 52 50 45 44 44 44 43 44 45
56 56 56 55 54 54 55 54 53 53 52 51 49 49 49 49 49 48 46 45 45 45 45 44 41 40 42 47 54 59 58 56 55 54 53 53 52 50 49 50 55 55 54 52 46 46 48 57 59 57 56 55 54 54 53 54 52 47 44 45 46 46 47
55 55 56 56 55 55 55 54 54 53 52 52 50 50 49 49 48 48 47 46 46 44 44 44 41 40 43 46 54 59 57 56 54 53 51 50 50 49 48 46 45 45 47 44 43 47 49 56 59 57 55 54 53 52 53 55 55 56 58 58 58 57 56
53 53 54 57 56 56 56 56 54 53 52 53 52 51 50 49 48 47 47 46 45 44 42 43 42 40 42 44 47 55 55 53 51 50 51 50 48 47 46 46 44 41 41 41 41 43 46 51 58 58 57 55 53 51 56 57 59 60 59 59 58 58 57
53 53 54 54 56 57 56 55 54 52 51 51 51 50 50 49 48 47 46 46 46 45 44 42 41 39 40 41 43 47 51 51 50 48 47 46 46 45 45 44 44 42 41 42 42 42 43 45 49 57 57 56 56 55 54 55 55 54 59 58 58 58 57
55 54 54 54 53 53 56 56 54 53 51 50 49 48 49 48 47 47 46 45 45 45 46 43 42 40 39 40 40 42 48 48 48 47 45 45 44 43 43 43 43 41 40 41 42 43 43 43 45 50 47 44 44 47 57 57 58 59 59 58 57 56 56
54 55 54 54 54 53 54 55 55 53 51 50 48 47 46 47 47 46 46 44 44 45 45 45 42 41 40 40 40 40 40 43 43 46 44 43 43 43 44 44 43 42 40 40 40 41 42 43 45 44 43 44 45 46 49 55 56 56 56 55 54 52 51
52 53 54 54 53 52 51 52 53 53 51 49 47 46 45 45 44 44 43 43 43 43 44 45 44 42 41 40 40 40 39 40 41 44 44 43 43 43 43 42 42 41 41 41 41 41 41 42 43 42 43 44 45 46 51 51 49 49 47 48 49 49 49

ECMWFFLT1_sfc_temp_102.txt.gz
Temp
62 62 63 65 63 64 63 65 64 65 65 66 66 66 66 66 67 66 66 66 65 65 65 65 65 65 65 65 65 65 65 64 64 63 63 62 60 61 63 62 62 63 62 62 61 60 58 57 58 61 63 62 62 62 63 63 63 63 63 63 63 63 63
63 64 63 64 64 63 64 63 64 65 65 65 66 66 66 67 66 65 65 65 64 65 65 65 65 65 64 64 64 64 64 64 64 64 63 62 62 62 62 62 62 62 61 61 62 61 58 57 57 58 59 61 62 62 62 63 63 64 64 63 64 64 63
65 65 65 64 64 64 64 64 65 64 65 65 64 65 65 66 65 65 65 65 65 65 65 65 64 64 64 65 65 64 64 64 64 64 63 64 63 63 63 62 61 61 60 60 60 60 59 59 57 58 60 59 58 60 62 62 63 63 63 64 64 64 63
65 65 66 66 65 65 64 63 63 65 65 65 65 65 65 65 65 65 64 64 64 65 65 65 64 64 64 64 65 65 65 64 64 64 64 64 63 62 62 62 61 61 60 59 59 59 59 58 58 59 60 60 60 60 61 63 63 64 63 63 64 64 64
65 65 65 64 65 64 64 63 63 63 65 65 65 64 64 64 64 64 64 64 64 64 63 64 64 65 64 64 64 63 63 64 64 64 64 63 63 62 62 62 61 61 61 60 61 61 60 59 59 59 59 60 60 61 63 62 63 62 63 62 63 64 64
65 65 64 64 64 64 64 65 64 64 64 63 63 63 63 63 64 64 64 63 63 64 64 64 64 65 64 64 64 63 63 63 63 63 62 63 63 61 61 62 62 62 62 63 62 62 62 61 60 57 59 61 58 59 62 62 60 62 63 62 63 64 65
63 63 62 61 62 62 64 64 64 65 65 64 63 62 64 64 64 64 65 64 64 64 64 63 64 64 64 63 63 63 63 63 63 63 62 62 62 63 62 61 61 62 63 62 62 63 62 59 58 59 58 58 58 59 60 61 62 60 61 63 63 64 64
61 60 60 61 60 61 61 62 62 63 63 63 63 63 64 64 64 64 63 63 63 63 63 63 64 63 63 63 63 63 63 63 63 63 63 63 63 63 63 62 62 62 62 63 63 62 62 62 61 60 59 56 57 58 58 60 60 60 61 62 63 64 64
60 60 60 60 60 59 60 60 61 61 62 61 63 64 65 64 64 63 63 63 64 63 63 63 63 63 63 63 63 63 62 64 63 63 63 63 63 64 63 63 62 62 63 63 63 63 63 64 63 60 60 60 57 54 57 57 58 59 62 60 62 64 64
60 59 58 58 59 59 59 60 60 60 61 62 63 64 64 65 64 63 63 63 63 63 63 63 63 63 63 63 62 62 62 63 63 63 63 62 63 63 62 63 62 62 62 62 63 62 62 62 62 61 62 62 62 58 55 55 57 58 60 62 60 61 64
60 59 58 58 58 59 59 59 60 60 60 62 63 63 63 63 63 64 63 63 63 63 63 62 62 63 63 63 63 62 62 62 62 62 63 63 63 63 62 62 62 61 62 62 62 62 62 62 61 62 61 63 62 60 59 56 57 61 60 62 62 60 63
58 57 58 58 57 58 58 59 59 59 60 60 61 61 61 61 62 62 63 63 62 62 62 62 62 62 63 62 62 62 62 62 62 62 62 62 63 63 63 62 62 62 63 62 62 63 63 63 62 63 62 61 60 61 61 59 56 58 63 60 61 63 63
57 58 58 58 58 58 58 58 58 57 58 59 59 59 59 59 60 61 62 62 62 62 62 62 61 61 61 61 62 62 62 62 62 62 62 62 63 63 63 62 62 62 63 63 62 63 63 64 64 62 61 60 61 61 59 59 59 57 60 62 61 62 64
57 57 57 58 58 57 57 57 56 57 57 56 57 57 57 58 59 59 61 63 62 62 61 61 61 61 61 62 62 62 63 62 62 62 62 62 63 63 62 62 63 63 63 62 63 63 63 63 63 62 61 61 61 61 60 59 57 56 58 60 61 61 64
57 57 57 57 56 56 56 56 56 56 55 56 56 56 56 57 58 59 61 63 63 63 62 62 62 61 61 61 61 62 62 62 62 62 62 62 62 63 62 62 63 63 63 62 63 63 63 62 62 61 61 60 60 60 61 59 58 58 56 57 59 61 61
56 56 56 55 55 55 55 55 56 55 55 55 55 56 57 57 57 59 61 62 63 62 62 62 61 61 61 61 61 62 62 62 62 62 62 62 63 63 62 62 62 63 63 63 63 63 64 63 62 61 61 61 60 60 60 61 59 58 57 57 60 60 61
56 56 55 54 54 54 55 55 56 55 55 55 55 56 57 56 56 58 59 60 61 61 61 61 61 60 61 62 62 62 62 62 62 62 62 62 63 62 62 62 62 62 62 62 63 63 63 63 61 61 61 60 60 60 60 60 60 59 58 57 58 60 62
55 54 54 54 54 55 56 56 56 56 55 55 55 56 56 56 55 56 56 58 59 60 60 61 61 61 62 62 62 62 62 63 63 63 62 62 63 62 62 62 62 62 62 61 62 62 62 62 61 61 60 60 60 60 61 60 59 59 58 58 58 60 60
54 54 54 54 55 56 56 56 56 56 56 54 54 55 54 54 54 54 55 56 57 58 59 60 58 56 56 58 60 62 62 62 63 63 63 63 62 62 62 62 63 62 61 61 61 61 61 60 61 60 60 60 59 60 60 60 59 59 59 58 58 57 59
54 54 55 55 56 56 56 55 55 55 55 54 53 53 53 52 52 53 53 54 55 55 57 57 54 52 52 52 55 59 61 62 62 62 63 63 63 62 61 62 62 62 61 61 61 61 60 60 60 60 60 59 60 59 59 59 59 59 59 58 58 58 58
55 56 56 56 55 55 55 54 54 54 54 53 53 53 53 52 52 52 52 52 53 53 55 55 53 50 49 49 50 54 59 61 61 61 62 62 62 62 62 62 62 62 62 62 61 61 61 60 61 60 60 60 60 59 59 58 58 58 58 58 57 57 58
56 56 56 55 55 54 53 53 54 54 53 53 53 53 53 52 51 51 51 51 51 51 52 53 53 50 46 46 47 48 54 59 61 61 61 61 61 61 61 61 62 62 63 64 59 58 59 59 61 60 59 60 59 59 58 58 58 58 58 58 57 57 57
54 54 54 54 54 54 53 53 53 52 52 52 52 52 52 51 51 50 49 50 50 49 50 51 52 47 45 44 44 45 50 56 60 61 60 60 60 61 61 61 61 63 60 59 57 53 51 52 56 61 60 60 59 59 58 58 57 58 58 57 57 56 56
52 52 53 53 53 53 52 52 52 52 51 51 51 51 51 50 50 49 49 49 48 48 48 50 47 42 42 42 43 44 47 52 59 60 60 60 60 60 60 61 60 61 60 58 57 51 49 49 49 51 52 56 59 61 58 57 57 58 57 57 57 56 56
51 51 51 51 51 51 52 52 51 51 51 50 51 51 50 49 49 49 49 48 47 47 48 48 43 41 41 40 41 43 46 51 58 60 60 59 59 59 59 60 59 60 60 60 59 58 53 48 47 49 49 50 51 52 54 59 58 57 58 57 57 57 57
50 50 50 50 49 49 49 50 50 50 50 50 50 49 49 48 48 48 48 47 46 47 47 45 41 41 40 40 40 41 46 52 58 59 59 59 59 58 58 59 59 59 60 60 61 59 58 53 48 49 49 49 49 48 49 50 53 60 60 58 57 57 58
49 49 49 49 48 47 47 47 49 50 50 50 49 48 48 47 47 47 47 46 45 46 46 43 40 41 42 40 39 40 48 56 58 56 56 56 57 58 59 58 58 58 58 59 58 57 56 54 56 56 55 55 56 52 48 48 48 50 55 59 58 57 58
47 48 48 48 47 46 45 45 47 49 49 49 48 47 47 46 46 46 46 46 45 44 45 41 40 41 43 45 45 46 55 54 52 52 52 52 51 52 54 58 58 57 57 56 56 56 56 55 56 57 56 56 55 55 56 56 58 58 57 60 59 59 58
47 46 47 47 46 45 44 44 45 47 48 48 48 48 47 47 46 45 46 45 44 43 44 40 40 41 42 43 47 52 52 51 50 49 49 49 49 49 50 51 54 57 57 56 53 48 52 56 56 54 52 51 50 50 47 44 41 50 56 56 54 53 52
46 46 46 46 45 44 43 43 44 45 46 47 47 47 46 46 46 45 45 45 44 43 43 41 40 40 41 42 47 50 50 49 49 48 47 47 47 47 47 49 50 52 56 55 47 45 47 51 54 52 51 50 49 48 46 46 42 41 41 41 42 42 43
45 45 45 44 44 44 44 43 43 44 44 45 46 46 46 46 46 45 45 44 45 43 43 42 40 40 40 41 46 49 48 47 47 47 46 47 46 46 47 46 48 48 50 48 41 43 45 51 53 51 51 50 48 47 47 48 48 46 43 43 43 43 43
44 43 43 43 43 43 43 42 42 43 44 45 46 46 46 45 45 45 45 45 46 44 43 43 41 40 40 41 45 48 48 47 46 45 45 45 46 45 45 45 44 42 45 43 40 42 43 50 53 52 51 50 48 47 48 50 50 50 51 50 50 50 48
44 43 42 42 43 42 43 43 42 42 42 44 45 46 45 45 44 44 44 44 45 44 43 43 42 41 41 41 42 46 46 45 44 44 45 44 44 44 44 44 43 40 39 40 40 40 42 44 52 52 52 50 49 48 50 49 49 49 48 48 48 48 48
43 43 42 42 42 43 42 42 42 42 41 43 44 44 44 44 44 43 44 44 44 44 44 43 42 40 41 41 41 42 44 43 44 44 43 43 43 43 43 43 43 41 40 40 40 40 41 42 45 48 47 47 47 47 47 47 47 47 47 47 47 47 47
44 44 43 42 41 41 42 42 42 41 41 42 42 43 43 43 42 42 43 44 44 44 45 44 43 41 40 41 40 41 42 42 43 43 42 42 42 42 42 42 42 41 40 40 40 40 41 41 42 46 43 41 41 42 47 48 47 47 47 46 46 45 45
43 44 43 42 41 40 41 41 41 41 41 40 41 42 43 42 42 41 42 43 43 44 44 45 42 42 41 40 40 40 40 41 41 43 42 40 40 41 42 42 43 42 40 40 40 40 41 42 43 42 41 41 42 42 44 46 45 46 45 45 44 44 43
42 41 41 41 41 40 40 40 40 40 40 39 39 40 41 41 41 41 41 41 42 42 43 44 43 41 41 40 40 40 39 39 40 42 42 41 41 41 41 41 41 41 41 41 41 41 40 41 41 41 42 42 42 43 46 45 45 44 43 43 43 43 42

ECMWFFLT1_sfc_temp_105.txt.gz
Temp
60 60 62 62 62 63 63 62 62 63 63 64 65 64 64 63 64 63 63 63 63 64 65 64 64 64 64 65 65 65 65 65 64 62 62 62 61 61 62 61 61 62 62 61 60 58 56 56 57 61 62 62 62 62 63 63 63 62 61 61 61 61 61
61 61 62 63 63 63 63 63 63 63 64 64 63 64 64 65 64 64 63 63 63 63 64 64 64 64 65 65 64 64 64 64 64 64 63 63 63 62 61 61 61 61 61 61 61 60 57 56 56 57 58 61 62 62 62 63 64 63 62 62 62 62 62
62 62 62 62 62 62 63 63 64 65 65 66 66 65 64 64 64 64 63 63 63 63 64 63 63 64 64 64 65 64 65 64 65 64 63 63 64 64 63 62 61 60 60 59 59 59 59 59 57 57 58 58 58 60 62 62 63 64 64 63 62 62 62
61 61 61 61 61 62 63 64 65 65 65 66 65 66 65 65 64 63 63 62 62 63 63 63 63 63 64 64 65 65 64 64 64 64 64 63 64 63 63 62 62 61 60 59 59 59 59 57 57 58 59 59 59 59 61 63 63 64 64 63 63 62 62
60 61 61 60 60 62 62 63 63 64 65 65 65 65 65 65 64 63 63 62 62 62 62 63 63 63 63 64 64 64 64 64 64 63 63 63 63 63 63 63 62 62 62 61 60 60 59 59 58 58 58 60 60 60 62 62 63 63 63 62 63 63 63
61 60 60 59 60 60 61 62 62 62 63 63 63 62 63 63 63 62 62 62 62 62 62 62 63 63 63 63 63 63 63 63 63 63 62 62 62 62 62 63 62 62 61 62 61 60 61 61 59 58 59 60 58 59 60 61 60 62 63 63 63 64 64
62 62 61 60 61 62 62 61 62 62 61 61 60 60 61 62 62 62 63 62 63 63 62 62 63 63 63 63 63 63 63 63 63 63 63 63 63 63 63 61 61 62 61 62 61 61 60 60 58 58 57 58 59 58 60 60 62 59 61 62 63 63 64
60 59 59 60 59 59 59 59 59 59 59 59 59 60 61 61 61 62 62 62 62 62 62 62 63 62 63 63 63 63 63 63 63 63 62 63 62 62 62 62 61 62 62 62 62 61 61 61 60 59 58 56 56 58 58 60 60 60 61 62 63 62 63
59 58 58 57 57 56 57 57 57 57 57 57 59 59 60 60 60 60 61 62 62 62 62 62 62 62 63 63 63 63 63 64 63 63 63 63 62 63 62 63 62 61 62 62 62 62 62 61 61 61 60 59 56 54 57 57 58 59 62 60 62 63 63
56 56 56 56 56 56 56 57 56 57 57 57 58 59 58 58 59 59 59 60 61 61 62 62 62 62 63 63 63 63 62 63 63 62 63 62 63 63 62 63 62 62 63 63 63 62 62 62 62 61 61 59 58 56 55 55 56 58 60 62 60 61 63
56 56 56 56 56 56 56 56 56 55 55 56 57 57 57 56 57 59 58 59 60 61 61 62 62 62 63 62 63 63 63 63 62 62 62 62 62 63 62 62 63 62 63 62 62 62 62 62 62 61 61 61 60 58 57 56 57 59 59 61 62 61 63
56 56 56 56 55 55 54 54 54 54 54 55 55 55 54 55 55 56 57 58 59 60 61 61 62 62 63 62 62 62 63 63 62 62 62 62 62 62 62 62 62 62 63 62 62 62 62 62 62 62 61 60 60 60 59 57 56 58 62 59 62 64 63
56 55 55 54 54 53 53 53 53 53 53 54 54 54 54 54 55 55 56 57 59 60 60 60 60 61 61 62 62 62 62 62 62 62 62 63 63 62 62 61 62 62 62 62 62 62 61 62 62 61 61 60 60 60 60 58 56 57 60 61 61 62 64
54 54 54 54 53 52 53 53 52 53 53 52 53 54 56 55 54 54 55 57 60 61 61 61 61 61 61 61 62 62 62 62 62 62 62 62 63 62 62 62 62 63 64 62 62 62 62 62 62 61 61 60 60 60 60 58 57 56 57 58 60 61 63
53 53 52 52 52 52 52 52 53 53 51 52 53 54 56 54 53 53 55 58 59 59 60 60 61 61 61 61 61 62 62 62 62 62 62 62 62 62 62 62 62 63 64 62 62 62 62 62 61 61 61 60 60 60 60 59 58 57 56 57 58 60 61
52 52 51 51 51 53 54 55 55 54 53 53 54 55 55 54 53 54 55 56 57 57 58 58 59 59 59 60 60 61 62 62 61 61 61 62 62 63 62 62 62 63 63 62 62 61 61 61 62 61 61 61 60 60 60 60 59 57 57 57 59 59 60
51 51 51 51 52 54 55 55 56 55 54 54 53 54 55 54 53 53 53 53 54 55 55 56 58 56 55 55 55 56 59 61 62 62 62 62 62 62 62 62 62 62 62 61 61 61 61 62 61 61 61 60 60 60 60 60 60 58 58 57 57 59 60
51 51 51 52 54 55 54 55 55 54 54 54 54 54 54 53 53 52 51 52 52 52 53 54 55 55 53 53 52 53 54 56 59 61 62 62 63 63 62 62 62 62 62 61 61 61 61 61 62 61 60 60 60 60 60 60 60 59 58 57 57 59 59
52 53 53 53 53 53 54 54 54 54 54 53 53 53 53 52 52 52 52 52 51 51 52 52 54 54 53 51 50 51 51 53 55 58 61 62 63 63 62 62 62 62 62 61 61 61 61 62 62 61 60 60 60 60 59 59 60 59 59 58 57 57 58
54 54 53 52 52 52 53 53 53 52 53 52 52 52 52 52 52 52 51 51 51 51 51 51 52 53 52 51 49 49 49 49 51 54 59 62 63 63 63 62 62 62 62 61 61 61 61 61 62 60 60 60 60 60 59 59 59 58 58 58 57 58 57
53 53 53 51 51 51 51 51 51 51 52 50 51 51 51 51 51 51 51 51 51 51 50 50 51 52 51 50 48 47 47 48 49 51 55 60 62 62 62 62 62 62 62 62 61 61 61 60 61 60 60 60 60 59 59 59 59 58 58 57 57 57 57
50 50 50 49 49 50 51 50 50 50 50 50 51 51 51 51 50 50 50 50 49 50 49 49 50 50 48 47 46 46 46 46 48 50 53 57 61 62 62 62 62 62 63 63 60 59 59 59 60 59 59 60 59 59 59 58 58 58 58 57 57 57 57
48 48 48 48 48 49 50 50 49 49 49 50 50 51 50 50 49 49 48 48 49 48 48 49 50 46 44 44 44 44 45 46 48 50 52 55 59 61 61 61 61 62 60 58 57 53 51 52 56 60 60 60 59 59 58 58 58 58 58 57 57 56 56
48 47 47 47 47 47 47 48 48 48 49 49 49 50 49 48 48 48 48 47 47 47 47 48 44 40 40 42 44 44 44 46 48 50 52 55 59 60 60 61 60 61 60 59 57 51 48 48 49 51 53 55 57 59 59 58 58 58 57 57 57 57 56
46 46 46 46 46 46 46 46 47 47 48 48 49 49 48 47 47 47 47 47 46 46 46 45 40 41 41 42 42 44 45 46 49 52 55 56 56 57 58 59 59 60 60 60 60 59 53 48 46 47 48 49 49 51 54 58 58 57 58 57 57 57 57
45 45 45 45 45 45 44 45 46 47 48 49 48 47 47 47 47 47 47 46 45 46 45 43 40 41 41 42 42 44 48 51 52 52 51 51 51 51 52 54 56 58 59 60 61 60 59 57 49 46 47 48 48 48 47 48 52 60 59 58 57 57 57
44 44 44 44 44 43 43 43 45 48 48 48 47 47 47 46 46 46 46 46 45 45 44 42 40 41 41 42 42 47 52 51 50 50 49 49 48 48 49 50 52 55 57 58 57 57 58 57 56 53 53 54 55 54 48 47 47 48 53 59 58 58 59
44 44 44 43 43 42 42 42 44 46 47 47 46 46 45 45 46 46 46 46 45 44 44 41 40 40 41 41 43 46 50 50 49 48 48 48 47 47 47 48 50 52 56 56 53 49 54 56 56 56 55 55 56 56 56 56 56 56 56 59 59 59 59
42 42 42 42 42 41 42 43 43 45 46 46 47 46 46 46 45 45 46 45 45 44 44 40 40 40 41 41 44 49 49 48 48 47 47 47 47 47 47 47 47 50 52 51 47 42 46 53 55 55 54 53 52 52 49 44 41 46 55 59 59 59 58
42 41 41 41 40 40 40 41 43 45 45 45 45 45 45 45 45 45 45 45 44 43 43 41 40 40 40 41 45 48 48 47 47 46 46 46 46 46 46 47 46 46 47 47 42 41 43 49 53 52 51 50 49 48 47 48 43 41 44 46 47 48 47
40 40 40 40 39 40 41 42 43 44 44 44 44 44 45 45 45 45 44 44 44 43 43 42 40 40 40 41 44 46 47 46 45 45 45 46 46 45 46 47 47 44 44 43 41 41 44 50 52 51 50 49 48 47 47 49 49 46 42 41 41 40 42
40 40 39 39 40 39 40 41 42 44 44 45 45 44 44 43 43 44 44 44 46 43 43 43 41 40 40 40 44 45 45 45 44 44 44 44 45 45 44 45 44 43 43 42 40 41 42 48 50 49 49 49 47 46 46 48 48 49 50 50 49 50 49
40 39 38 39 40 39 40 40 40 41 42 43 43 43 42 41 40 41 42 43 43 43 43 43 42 40 40 40 41 45 44 43 42 42 43 44 43 44 44 43 43 40 39 40 40 40 40 43 46 46 46 45 45 44 47 47 47 47 47 47 47 47 47
40 39 39 38 39 40 39 39 39 39 39 40 41 41 41 41 41 41 42 42 42 42 43 41 42 40 40 40 40 42 43 42 43 42 42 42 42 42 42 43 42 41 40 40 40 40 41 41 43 45 44 43 43 44 46 46 46 46 46 46 46 46 46
40 41 40 39 38 39 39 40 40 40 40 40 40 40 40 41 41 41 41 42 42 42 44 44 42 41 40 40 40 40 42 42 42 43 41 41 41 40 41 42 42 41 40 40 40 40 41 41 41 44 41 40 41 42 45 46 46 45 45 44 44 43 44
39 40 39 39 38 37 38 38 39 40 40 41 41 41 41 42 42 41 41 41 42 43 43 44 42 42 41 40 40 39 39 40 40 43 41 40 40 40 41 41 42 42 40 40 40 40 41 41 42 42 41 41 42 42 44 44 44 44 43 43 43 42 42
38 37 38 38 38 37 37 37 38 38 38 38 39 40 40 41 41 40 39 39 41 42 43 43 43 41 41 40 40 39 39 39 39 42 42 41 41 41 40 40 40 40 40 40 40 40 40 40 41 40 41 42 42 43 44 43 43 43 42 42 41 41 41

ECMWFFLT1_sfc_temp_111.txt.gz
Temp
70 69 70 71 72 72 72 72 73 73 74 75 74 74 75 74 74 73 72 72 71 71 71 70 69 70 69 70 70 69 69 68 67 65 66 67 64 66 68 66 66 67 68 67 65 62 62 60 66 71 70 70 70 69 70 69 69 68 68 67 67 67 66
71 71 71 71 71 72 71 71 72 72 71 72 73 72 73 73 72 72 72 71 70 70 70 71 71 70 69 69 69 68 67 68 68 67 66 65 66 65 65 65 66 65 67 68 67 65 61 61 62 65 67 70 69 69 69 69 69 68 67 67 67 67 66
69 69 70 70 70 70 70 69 70 70 71 71 71 72 71 71 71 72 71 71 70 70 69 70 70 70 70 70 70 69 69 68 68 67 65 66 66 67 67 67 65 64 64 64 63 63 63 63 60 64 68 67 65 68 70 69 69 69 69 67 67 67 66
69 69 69 68 69 69 69 69 69 69 70 70 69 69 69 69 69 70 69 69 69 69 69 70 69 70 70 70 70 69 68 68 67 66 66 66 67 66 67 66 66 67 64 63 63 64 62 61 60 61 65 68 68 67 70 71 71 71 71 68 67 66 67
69 69 68 67 67 68 68 67 68 68 68 68 67 67 66 66 67 67 68 69 68 68 69 69 69 70 70 70 69 67 67 67 68 67 66 65 66 67 67 67 66 66 66 65 66 66 64 62 61 61 63 66 66 70 73 72 71 70 70 68 68 67 66
67 67 67 67 67 66 66 65 65 65 66 65 65 65 64 64 66 66 66 66 67 67 68 69 69 69 68 68 68 68 67 67 68 68 66 66 66 65 66 68 68 67 65 67 68 67 67 67 65 60 63 64 60 63 68 69 67 70 71 71 71 69 67
67 67 66 65 65 65 65 64 63 64 64 63 63 62 63 65 65 64 64 65 66 66 66 66 67 68 68 67 67 67 68 68 67 66 66 66 66 66 67 66 67 67 66 67 67 66 66 66 64 62 61 62 63 63 67 69 70 66 67 70 71 70 68
65 64 64 64 63 63 63 63 63 64 63 64 63 63 63 62 62 63 63 63 63 64 64 65 65 66 67 67 67 68 69 69 68 67 66 66 65 65 66 65 66 67 69 70 68 68 68 66 64 63 62 59 60 63 64 67 67 65 67 70 71 69 67
64 64 63 62 62 62 61 61 61 62 62 63 63 62 62 62 61 61 62 61 62 63 64 65 65 65 65 64 65 66 67 70 68 68 68 67 66 66 67 67 66 66 68 69 68 68 67 68 67 66 63 61 58 57 63 62 64 65 69 66 67 68 67
61 61 60 60 60 61 61 61 62 61 61 61 60 61 60 61 61 61 60 60 61 62 64 65 65 64 63 63 63 64 64 67 67 67 67 67 68 68 68 67 65 66 68 69 69 69 68 67 67 66 65 62 62 59 57 57 60 62 68 69 65 67 69
61 60 60 60 60 60 60 61 61 60 59 59 60 60 60 60 59 59 59 59 60 61 61 62 63 65 65 65 66 66 66 66 65 66 67 67 67 66 66 67 69 68 69 68 68 69 68 67 66 66 64 64 63 59 59 57 60 65 66 69 70 68 67
61 61 61 61 60 60 59 59 59 58 58 59 59 59 59 59 58 58 58 58 59 60 60 60 61 61 63 63 65 65 66 67 65 65 66 66 67 68 68 67 68 67 69 68 68 69 69 69 69 69 68 67 64 63 61 60 57 64 68 64 67 71 66
61 61 60 60 60 60 59 58 58 58 57 58 58 58 58 58 58 57 58 58 58 59 59 59 60 60 60 60 61 61 62 63 64 63 63 64 66 67 67 68 69 69 70 70 69 69 69 70 69 68 68 67 65 64 62 60 59 60 67 67 67 66 66
59 61 60 60 60 60 59 58 58 58 59 57 58 58 58 57 57 57 58 58 58 58 57 57 58 57 58 58 59 59 60 60 60 61 61 61 62 64 65 67 69 70 71 68 68 69 68 67 67 67 68 67 65 66 64 61 59 60 65 68 66 65 66
60 60 60 60 59 59 59 58 59 59 58 58 58 57 58 57 57 57 57 57 58 58 57 57 57 57 57 56 57 58 57 58 58 58 59 60 60 61 62 64 67 69 70 69 68 69 70 69 68 66 67 67 65 65 65 62 61 60 61 66 63 65 64
60 60 59 58 57 58 58 58 59 57 57 57 58 57 57 57 57 57 57 56 57 56 56 56 56 56 55 55 56 56 56 56 56 56 57 58 59 60 60 61 63 66 68 67 67 68 69 68 68 66 66 67 66 66 66 65 62 60 61 63 65 63 63
59 58 57 57 57 57 57 57 57 56 56 57 57 57 57 57 57 56 55 56 56 55 54 54 54 55 54 54 55 54 54 55 55 55 55 56 57 59 59 59 61 63 65 66 66 66 66 68 67 67 66 66 67 66 66 66 64 62 62 61 64 63 64
57 56 56 56 55 56 55 56 56 56 56 55 56 56 57 57 56 55 54 54 54 53 53 53 53 53 53 53 53 53 52 53 54 54 54 54 54 57 58 59 60 62 63 63 65 64 67 67 69 67 65 66 66 67 66 65 64 63 61 60 62 64 64
56 55 55 55 55 55 55 55 55 55 56 55 55 55 55 55 54 54 54 54 53 53 53 53 52 51 51 51 51 52 52 52 52 53 53 54 54 55 56 57 58 59 60 62 63 65 67 67 68 67 66 66 66 66 65 64 64 63 62 61 61 61 62
55 55 55 55 55 55 54 55 55 55 55 54 54 54 54 54 54 54 54 53 53 52 51 51 51 50 50 50 51 52 52 52 52 53 54 55 55 55 56 57 58 59 60 61 62 63 63 64 64 63 63 65 66 65 65 65 64 62 61 61 61 62 61
56 55 56 55 54 54 54 54 54 55 55 54 53 53 53 53 54 54 53 53 52 52 52 50 49 49 49 50 51 53 53 52 52 53 55 56 57 57 58 58 59 60 60 60 60 60 60 60 61 61 63 63 63 62 62 63 63 61 60 60 60 60 60
56 56 55 54 54 53 54 54 54 54 54 54 53 54 54 54 53 53 54 53 53 52 50 48 47 47 47 49 51 53 53 53 53 53 54 55 55 55 55 56 56 57 58 58 54 53 53 53 56 58 60 61 61 61 62 63 62 60 59 59 59 60 59
55 54 54 53 53 53 53 53 54 53 53 53 53 53 53 53 54 54 53 54 53 50 48 48 46 43 44 47 51 53 53 53 52 52 52 51 52 52 53 54 56 56 54 54 53 49 48 48 50 53 56 57 57 58 58 59 60 60 60 58 59 59 58
56 53 53 52 52 53 53 53 53 53 52 52 52 52 52 52 52 53 54 53 52 50 48 47 41 40 41 43 50 52 52 51 51 50 50 49 49 50 52 53 55 55 55 54 55 49 47 47 46 46 47 48 50 53 55 56 57 59 59 59 59 58 58
55 52 52 52 52 53 53 53 53 52 52 51 52 52 52 53 53 53 53 54 52 51 49 44 40 41 41 41 44 51 52 51 50 49 49 49 49 50 51 52 53 55 55 55 55 56 54 50 47 47 46 47 46 45 44 49 51 53 56 57 58 59 59
53 52 52 52 52 53 53 52 52 52 51 51 52 52 52 52 52 53 53 53 52 51 50 42 40 40 41 41 41 48 52 51 50 50 51 50 50 50 51 52 52 53 54 53 54 54 57 60 53 49 49 50 49 46 43 42 43 49 51 52 54 57 59
51 51 52 52 52 52 52 51 51 51 52 52 53 54 53 52 52 52 52 53 53 52 49 42 40 40 40 40 41 46 53 52 51 51 51 51 50 50 50 50 50 51 52 53 51 50 55 59 59 60 59 59 58 54 48 46 45 44 48 52 53 54 57
52 52 52 52 52 52 51 52 51 52 52 53 54 53 52 52 52 52 53 53 53 51 48 40 40 40 40 40 41 47 53 52 52 51 51 51 51 50 50 50 50 51 51 51 49 46 51 57 59 58 58 56 56 57 55 53 52 51 50 50 50 51 53
52 53 53 52 52 51 51 51 51 52 52 52 52 53 53 53 52 52 52 52 52 51 49 40 40 40 40 39 43 54 53 51 50 50 50 50 50 51 51 50 50 51 52 51 45 40 44 54 59 57 56 55 55 56 55 51 44 45 48 49 48 47 46
51 52 52 51 51 50 51 50 51 53 52 52 51 51 51 52 52 51 51 51 51 52 51 44 39 40 40 39 47 54 53 52 50 49 48 49 50 50 49 49 49 49 50 50 43 39 40 47 56 55 55 54 53 53 53 55 49 45 43 42 42 42 42
51 51 51 50 50 50 51 52 51 52 52 51 51 51 52 52 52 51 50 50 50 51 51 45 40 40 40 39 46 52 53 52 50 49 49 49 49 49 49 47 47 48 47 47 40 40 39 49 53 53 52 52 51 50 51 53 54 54 47 46 44 43 42
51 50 50 50 50 50 50 51 52 53 52 53 52 53 53 52 51 52 51 50 48 50 51 48 41 40 40 40 47 54 52 51 49 47 47 46 48 48 47 48 45 43 43 42 39 40 40 47 53 52 52 51 49 49 50 52 51 52 53 53 53 53 51
50 50 50 50 50 50 52 52 52 52 52 53 53 53 53 52 51 51 52 52 50 50 50 50 46 39 40 40 41 51 51 49 46 45 45 44 44 45 47 48 47 40 39 39 39 39 40 40 50 51 52 50 49 47 52 52 51 52 52 51 50 51 50
49 50 51 50 50 51 51 51 51 52 52 52 52 51 51 52 52 51 52 52 52 51 49 50 48 40 40 40 40 44 50 48 46 45 45 45 46 45 46 46 47 42 39 39 39 39 40 40 42 50 48 48 47 45 49 54 52 49 52 51 51 50 50
50 49 51 51 51 50 51 52 51 52 53 52 51 50 51 52 52 52 52 52 52 52 50 46 49 44 40 40 39 40 47 48 47 50 48 48 48 47 46 46 45 42 39 40 39 39 40 41 41 48 44 40 40 40 52 54 55 55 53 52 51 49 48
49 50 50 51 51 50 51 51 51 52 52 52 51 51 51 51 51 51 52 52 53 52 53 51 43 47 42 40 39 40 39 44 41 50 49 47 46 46 47 46 44 41 39 40 40 40 40 40 44 44 39 40 41 41 47 53 53 52 51 51 49 47 45
49 50 51 51 51 51 51 51 51 52 52 52 52 51 51 52 52 51 51 51 52 53 53 54 47 42 45 40 40 39 39 39 40 48 50 47 47 45 45 44 42 39 40 40 40 41 40 40 42 39 40 41 44 45 51 51 50 50 49 47 46 45 44

ECMWFFLT1_sfc_temp_117.txt.gz
Temp
70 71 76 79 80 82 81 80 81 80 82 82 80 81 81 81 80 80 80 79 79 80 80 80 79 80 79 79 79 79 78 77 76 74 73 75 73 74 77 76 75 76 76 74 73 69 67 65 70 77 78 77 77 76 75 76 74 74 73 72 73 76 77
72 74 80 80 80 80 79 79 80 82 82 80 80 79 79 79 79 79 79 78 78 79 81 81 81 80 78 77 77 77 76 76 76 76 74 74 75 74 74 75 76 75 75 74 73 73 68 65 66 70 72 77 77 77 76 77 77 76 74 73 71 73 76
79 80 81 79 78 79 77 77 78 77 78 78 78 78 77 78 78 77 78 78 77 78 78 79 79 77 77 77 77 77 77 76 77 77 75 75 76 76 76 75 73 74 73 74 74 72 71 70 65 68 71 71 70 75 77 76 77 77 76 74 73 72 73
77 77 77 76 77 77 76 76 76 75 75 75 76 76 75 76 76 77 76 76 77 77 78 78 77 77 77 77 77 77 77 76 76 75 75 75 75 75 75 75 74 74 72 71 71 72 71 69 68 69 71 74 74 73 77 79 77 78 78 75 74 74 74
76 77 75 75 76 76 75 74 75 75 74 75 75 75 74 74 75 76 76 76 76 76 76 76 76 77 77 76 76 76 76 76 76 75 75 75 75 75 75 76 75 75 75 74 74 74 72 72 70 69 71 74 75 77 80 79 81 80 79 78 78 77 75
75 75 76 75 75 74 73 73 73 74 75 74 74 73 73 73 74 74 73 73 74 74 74 75 74 75 75 75 75 75 76 75 76 75 75 74 74 73 74 75 76 75 75 76 76 75 74 73 71 68 71 75 70 73 77 79 77 81 83 80 79 79 78
74 74 74 74 73 73 73 72 73 74 74 73 73 72 73 73 73 72 72 72 73 73 73 74 74 74 74 75 75 75 75 75 76 75 74 74 74 74 75 74 75 76 76 76 75 75 73 72 71 70 70 72 71 71 75 77 80 77 80 83 81 79 78
72 72 72 72 71 71 72 72 72 73 74 74 74 72 72 70 70 70 70 70 69 69 70 69 70 71 72 73 74 74 75 75 75 74 74 73 73 73 73 73 74 74 75 76 76 75 76 75 73 72 70 65 67 70 70 75 76 77 78 82 85 81 78
72 71 70 71 70 71 71 72 71 71 71 72 72 70 69 69 68 68 69 69 69 69 69 69 69 70 70 70 71 72 72 74 73 72 73 73 71 72 72 73 73 73 75 76 76 76 76 75 74 74 72 70 66 63 68 68 72 76 80 78 82 82 79
70 69 69 69 69 70 70 70 70 70 70 69 68 68 67 68 68 67 68 68 68 68 68 69 69 69 69 69 70 69 69 71 71 70 71 71 71 72 73 72 71 72 74 75 75 75 75 75 75 75 74 71 70 65 63 64 68 70 77 80 76 81 83
69 70 70 69 70 71 71 70 70 69 67 67 68 67 67 67 68 68 67 67 68 68 67 68 68 68 67 68 68 69 70 69 68 69 68 69 69 70 70 71 72 72 73 73 74 73 73 74 74 73 73 72 70 67 65 61 64 70 72 77 79 78 81
71 71 70 70 70 69 68 68 67 67 67 67 67 67 67 67 67 68 67 67 68 67 66 67 67 67 68 67 67 67 68 67 66 65 66 67 67 67 67 67 69 71 72 72 72 73 73 73 72 74 73 73 72 70 65 64 61 69 74 71 75 80 79
72 71 71 70 69 68 68 68 68 66 66 67 66 67 66 66 67 67 68 68 67 67 67 68 67 67 67 67 67 66 66 65 65 64 65 65 65 65 65 65 67 69 71 72 72 72 73 74 74 73 73 71 71 68 66 63 61 62 71 71 74 77 80
69 70 69 68 67 66 66 67 67 67 67 65 66 65 65 66 67 67 68 67 67 67 67 66 66 66 66 66 66 65 65 65 64 64 64 63 65 65 65 65 66 67 70 69 70 69 70 71 71 73 73 71 68 70 66 64 60 62 68 73 73 74 77
68 67 67 66 66 66 66 66 66 67 64 64 65 66 65 65 65 66 66 67 67 68 67 68 67 66 66 64 64 64 64 64 63 63 63 63 63 63 62 63 64 65 66 65 65 67 68 67 68 70 70 69 67 66 67 63 63 63 62 69 70 74 74
66 65 64 64 64 64 64 65 66 64 64 64 64 64 64 64 64 66 66 66 67 67 67 67 66 65 65 64 63 63 63 63 62 61 61 62 62 63 62 62 62 63 63 62 63 64 65 66 66 66 67 68 66 66 65 65 66 63 63 65 68 69 71
64 63 62 62 62 62 63 64 65 64 64 64 64 64 64 65 66 66 66 67 67 67 66 65 65 65 64 64 64 63 63 63 63 63 62 61 61 61 61 60 60 61 61 60 61 61 62 61 62 63 64 66 66 65 67 64 62 62 63 62 67 69 70
62 61 61 62 62 62 62 63 64 65 64 64 65 64 64 65 66 67 66 67 66 66 64 63 62 62 62 63 63 63 63 63 63 63 62 60 60 59 59 59 59 59 59 57 57 58 59 59 60 61 62 64 65 66 66 66 66 64 63 65 67 70 69
62 61 62 62 61 62 63 63 63 63 65 64 63 64 64 65 66 67 68 67 65 63 62 60 59 58 59 61 61 63 63 63 63 62 61 61 60 60 60 60 59 59 58 56 55 55 56 56 58 59 60 61 63 64 64 66 66 65 64 63 65 65 69
61 61 61 61 62 62 62 62 63 63 64 64 65 65 65 66 66 67 67 65 63 61 60 58 56 56 57 59 59 61 62 61 61 61 62 63 63 64 64 62 61 60 59 58 57 55 55 55 56 56 58 59 61 61 62 64 65 65 65 65 66 67 67
61 61 61 62 62 62 63 62 62 63 64 64 64 66 67 67 67 67 65 64 62 60 59 57 55 54 56 58 58 60 61 61 61 62 62 63 64 63 63 63 62 62 62 61 58 57 56 55 55 55 58 59 59 58 58 60 60 62 63 64 65 65 67
61 61 61 61 61 61 62 63 63 63 64 64 64 66 67 67 67 66 65 63 62 60 57 53 52 50 51 55 57 59 61 62 61 61 62 63 63 63 63 63 63 63 62 58 54 53 52 51 54 56 58 60 60 58 58 58 57 58 59 60 61 63 63
61 61 61 61 62 62 62 63 63 63 64 64 65 65 65 65 66 64 63 62 61 59 57 54 47 42 43 49 54 59 62 62 62 62 61 61 62 62 63 63 64 60 57 55 54 50 48 49 50 54 57 59 59 58 57 56 55 55 55 55 56 57 58
62 61 62 62 63 63 63 63 63 62 62 63 62 63 64 63 63 63 63 61 59 57 55 51 40 41 41 42 50 58 62 61 61 61 61 60 60 60 61 63 63 62 60 57 57 50 49 48 48 47 47 48 52 56 55 54 54 53 53 52 54 55 55
63 62 63 63 64 64 63 62 62 62 62 61 61 62 62 62 62 62 62 61 59 57 56 45 39 41 41 40 43 52 62 60 60 60 60 59 59 58 58 59 60 61 60 58 57 56 53 50 48 48 47 43 44 44 46 54 53 52 51 51 51 52 52
63 63 64 64 63 64 63 62 62 61 61 62 62 61 61 61 61 62 62 61 58 57 55 44 40 40 41 40 41 46 63 60 60 59 58 58 58 57 57 57 57 58 58 55 55 54 53 55 53 50 52 44 43 43 45 43 47 53 54 52 51 51 51
64 64 64 64 63 63 63 62 62 62 62 63 62 61 61 60 60 60 61 61 59 57 54 43 40 40 41 40 41 43 63 60 59 59 58 58 57 56 56 56 56 56 57 57 54 51 51 53 55 59 63 63 62 54 46 50 50 48 52 55 53 51 53
64 64 64 63 63 63 62 62 63 64 63 63 63 62 61 61 60 60 61 61 59 56 53 41 40 40 41 41 40 46 62 59 59 58 57 57 57 56 56 56 56 56 56 55 52 46 48 51 54 59 60 60 60 61 60 59 59 59 58 58 57 55 55
64 64 63 63 62 62 61 61 61 63 64 63 62 63 62 62 61 61 61 60 58 56 53 41 40 41 40 41 42 61 61 60 58 58 57 58 58 57 57 56 56 55 55 54 48 41 43 48 56 57 56 57 58 59 59 57 50 50 56 57 58 57 57
63 63 63 62 62 61 61 63 63 63 62 61 61 61 60 60 61 60 60 59 58 56 55 45 40 41 41 40 47 63 62 61 59 58 58 58 59 58 55 56 55 54 54 53 46 39 41 43 57 56 55 55 55 56 56 58 52 50 48 45 44 45 44
65 63 63 62 61 61 63 63 63 63 62 62 61 61 61 60 60 59 58 58 58 56 55 48 41 41 41 41 46 61 62 60 59 59 59 59 59 59 55 50 53 54 53 52 42 40 40 47 55 55 54 53 53 53 54 56 57 57 50 50 48 47 46
64 63 62 62 62 62 62 61 62 63 63 63 62 63 62 61 60 60 59 58 54 56 56 51 43 41 41 42 47 60 62 61 59 59 59 59 60 59 60 56 50 49 49 46 40 41 41 47 53 54 53 52 51 51 52 54 54 54 55 55 55 56 55
62 61 62 62 62 61 62 63 63 64 64 65 63 63 62 61 60 59 59 58 57 57 56 54 49 41 42 43 42 55 61 59 59 59 59 59 59 59 59 59 56 46 41 41 40 40 41 42 51 55 54 52 49 47 52 54 53 52 52 52 53 55 54
59 60 61 61 61 62 63 62 62 62 62 63 62 61 61 61 60 60 60 59 57 56 56 56 51 41 42 42 42 46 59 57 57 59 59 59 59 58 58 58 59 50 43 41 41 40 40 41 43 55 54 52 51 47 48 54 53 50 52 52 52 52 53
60 60 61 61 61 61 62 63 63 63 63 62 61 61 61 61 61 60 61 60 59 57 54 51 56 46 42 42 42 42 53 56 53 57 58 58 58 58 58 58 58 52 43 42 41 41 40 42 42 57 52 41 41 43 52 53 54 55 54 52 51 50 50
61 61 61 62 61 61 62 62 62 62 62 61 61 60 60 61 60 60 60 61 61 61 59 56 47 53 43 42 41 43 41 49 44 56 58 57 57 57 59 58 57 49 43 41 42 41 43 43 48 53 41 42 43 44 50 55 52 51 51 51 50 48 48
62 62 62 62 62 62 62 63 63 63 63 63 62 61 62 61 61 60 59 60 60 62 62 60 49 48 50 42 45 42 42 42 43 53 57 58 59 58 58 58 55 44 42 42 43 43 46 47 50 42 42 42 46 49 57 55 52 51 48 49 48 48 47

ECMWFFLT1_sfc_temp_123.txt.gz
Temp
64 64 64 65 66 66 65 66 66 65 67 70 71 71 71 70 70 68 68 67 67 68 68 66 65 66 67 67 67 66 66 66 65 63 62 62 61 62 63 64 63 64 64 63 62 61 59 58 61 62 63 64 66 65 66 67 68 68 68 67 68 67 67
65 64 64 65 65 65 65 65 66 66 68 70 70 69 69 69 68 67 67 66 66 66 67 66 65 66 65 64 65 65 64 65 65 64 62 62 62 61 62 61 62 62 62 62 63 63 61 59 59 59 61 64 63 64 65 66 67 68 68 68 68 69 68
64 64 63 63 65 65 66 66 67 67 68 67 67 68 67 67 67 66 66 65 64 65 65 64 64 64 64 64 64 64 64 64 64 64 63 63 64 63 63 63 62 61 61 61 60 61 61 60 58 59 60 60 61 63 65 66 67 67 68 68 67 68 68
63 64 63 64 65 65 66 67 67 66 67 66 66 65 65 65 65 65 64 64 64 64 64 63 62 62 63 63 64 64 64 64 63 64 63 64 63 63 63 63 61 62 61 60 60 61 61 59 59 59 61 62 62 62 64 65 66 68 69 68 67 68 68
65 64 64 65 66 67 66 66 66 66 65 64 64 63 63 64 63 62 63 62 62 62 62 62 62 62 62 62 62 62 62 63 63 63 62 61 62 61 61 62 62 62 62 61 62 62 61 60 59 59 59 61 62 63 66 66 67 67 67 69 69 69 69
64 64 65 65 66 65 65 64 64 63 63 62 61 61 61 62 62 61 61 60 60 61 61 61 61 62 61 61 62 62 62 61 61 60 60 60 60 59 59 61 61 61 61 62 63 62 62 62 60 58 61 63 59 61 64 65 64 68 69 68 69 69 68
64 64 64 64 65 65 64 63 62 62 61 60 60 60 60 62 61 61 61 61 60 61 61 60 60 60 60 61 61 61 60 60 61 60 59 60 60 60 60 59 59 60 60 61 61 61 61 61 61 60 60 62 62 60 62 63 65 64 65 67 68 67 67
63 63 63 63 63 63 63 62 61 61 60 60 60 60 61 61 61 61 61 61 61 61 60 59 60 59 59 60 61 60 60 60 60 59 59 59 59 59 59 59 59 59 59 61 61 61 62 62 61 61 59 56 58 60 60 61 61 61 63 68 70 69 67
63 63 62 62 62 63 62 61 60 60 60 60 60 60 60 60 61 61 62 61 60 59 58 59 59 59 59 59 59 59 59 61 59 59 60 61 60 59 60 60 60 59 59 60 61 62 62 62 62 62 61 59 55 54 59 58 59 60 64 64 67 66 65
62 62 62 62 62 62 61 61 60 60 60 60 60 60 59 62 62 59 58 58 58 58 57 59 59 60 60 60 59 58 58 60 61 61 61 61 61 62 61 61 61 61 60 60 60 60 61 62 62 61 61 58 57 54 53 54 57 58 62 65 61 65 67
62 62 62 61 61 61 61 60 61 60 60 61 62 62 61 60 61 64 60 59 57 57 58 58 59 60 61 60 58 58 60 61 61 61 62 61 61 61 61 61 61 60 60 60 59 59 60 60 60 59 59 59 59 55 54 52 54 60 60 63 64 63 66
62 62 62 62 62 61 60 60 59 59 60 60 61 61 62 62 61 60 57 57 57 59 60 59 59 60 59 57 59 60 62 62 61 60 61 61 60 60 59 59 59 59 59 59 59 59 59 58 58 58 57 58 58 57 55 54 52 58 61 59 62 65 65
62 61 61 61 60 60 60 60 59 59 60 62 62 62 61 62 61 58 59 60 60 59 58 57 58 60 59 60 60 60 60 61 60 59 60 60 60 59 59 59 59 58 58 57 56 57 57 57 57 57 57 57 57 58 56 54 52 52 60 60 61 63 65
60 61 60 61 60 60 60 59 59 59 60 60 61 61 61 59 59 60 60 58 56 55 55 54 55 57 58 59 60 60 60 60 59 59 59 59 60 59 59 59 58 58 57 55 54 54 54 54 55 56 56 56 56 57 56 54 52 52 57 60 60 61 64
60 60 59 59 59 59 59 58 59 59 59 60 60 59 58 58 59 58 57 55 54 54 54 53 53 54 56 57 58 59 59 59 58 58 58 58 59 59 58 57 57 57 56 54 53 53 53 53 54 55 55 54 54 55 57 55 53 52 52 57 57 60 61
58 58 58 57 58 58 59 59 60 59 59 58 58 57 56 59 58 56 55 54 53 53 52 52 52 53 55 57 57 58 58 58 57 57 57 58 58 59 58 57 56 55 54 51 51 51 51 50 52 52 53 53 52 53 56 57 54 52 52 53 57 57 58
57 57 56 57 58 59 59 59 60 60 59 58 56 55 59 58 56 55 54 53 52 52 52 52 53 55 56 57 57 57 57 57 57 57 57 58 58 58 57 56 55 54 52 50 50 49 49 49 49 50 50 51 53 53 55 57 57 54 53 51 54 55 57
57 57 57 58 58 59 59 60 60 59 58 56 56 59 59 57 55 54 52 51 51 51 51 50 50 51 52 53 54 55 57 57 57 56 55 55 56 55 56 55 55 53 51 49 48 48 48 47 47 48 48 50 52 53 54 56 56 56 53 51 51 54 55
57 58 58 58 59 59 59 59 58 57 56 54 56 57 57 56 55 53 52 51 51 50 49 47 47 47 48 49 50 52 57 57 57 55 54 53 53 53 53 54 54 52 50 48 47 47 47 46 47 46 47 48 50 51 52 55 55 55 53 50 50 51 54
57 57 57 58 58 58 58 57 56 56 57 57 57 56 55 54 54 53 52 51 50 49 47 46 45 45 46 47 49 51 56 56 55 54 53 52 52 52 52 52 52 51 50 49 47 47 46 46 46 46 47 48 49 49 51 54 54 53 51 49 49 50 51
58 58 58 58 57 57 57 55 55 55 57 58 57 56 55 54 53 52 51 50 49 48 46 45 44 43 45 46 47 51 54 54 53 53 52 51 51 51 51 51 51 51 51 50 49 47 46 45 46 46 48 48 49 50 52 53 53 52 51 49 48 48 50
58 58 58 58 57 57 56 55 56 56 56 56 57 56 55 54 52 51 51 50 48 47 45 44 44 42 43 45 46 51 53 52 51 50 50 50 50 50 50 50 51 52 53 53 51 49 48 48 47 47 49 50 50 51 52 51 51 50 50 50 49 50 49
58 57 57 57 56 57 57 57 56 55 55 55 55 55 54 53 52 51 50 49 48 46 45 44 44 43 44 44 46 51 52 51 50 49 49 49 49 49 49 49 51 55 53 52 50 47 46 46 48 48 49 51 50 50 50 50 49 49 48 47 48 49 48
57 56 56 56 57 58 57 56 55 54 54 54 54 54 53 52 51 50 49 47 46 46 44 44 42 41 41 44 49 50 50 49 49 49 49 48 47 48 48 48 47 52 52 51 50 47 46 45 45 45 48 50 50 50 49 48 47 48 47 47 48 47 47
55 55 56 57 57 56 55 55 54 54 53 53 54 54 53 51 50 49 48 47 45 45 44 43 41 42 41 41 47 51 49 49 49 48 48 47 47 46 46 47 48 49 50 51 50 46 47 46 45 45 46 47 46 45 45 47 47 46 47 46 46 46 46
56 56 55 55 55 55 55 54 53 53 53 54 53 52 51 50 49 49 48 46 44 44 43 42 41 42 41 41 43 49 49 48 49 47 47 47 46 45 45 46 47 48 49 53 50 45 45 46 47 48 49 50 49 49 44 44 44 48 50 47 46 45 45
55 55 55 55 55 55 54 53 52 52 53 53 52 51 50 49 48 48 47 46 44 44 43 42 41 42 42 42 44 48 48 49 48 48 47 46 45 45 45 45 45 47 47 47 46 44 44 44 46 48 49 49 49 50 48 47 46 45 48 49 47 45 47
54 55 55 54 54 53 52 51 51 50 50 50 50 49 49 48 48 47 46 45 45 44 43 42 42 42 42 44 46 47 48 50 49 47 46 45 45 45 45 47 46 46 46 46 46 43 43 42 45 47 47 48 50 50 50 50 50 50 50 50 49 48 48
53 53 53 52 52 52 52 52 51 51 51 50 50 50 49 48 47 46 45 44 44 43 44 42 42 42 43 43 46 50 47 48 47 46 45 46 45 45 45 45 45 46 46 46 45 41 42 43 44 45 46 47 49 49 50 51 46 46 48 48 48 48 47
53 53 53 53 52 52 51 51 50 51 50 49 49 48 47 47 47 46 45 44 43 43 43 43 42 43 44 45 47 49 49 48 47 45 44 45 45 44 46 48 45 44 46 46 44 40 41 43 43 43 44 45 47 47 48 50 48 46 45 44 44 44 43
53 53 52 51 51 50 50 50 50 51 49 49 48 47 47 47 46 45 44 44 45 44 44 44 43 44 44 45 48 49 48 47 46 46 44 44 45 44 47 54 53 45 45 45 42 40 41 44 43 43 43 43 44 44 46 49 51 50 47 46 45 44 44
52 51 51 51 51 50 50 51 51 50 49 49 48 47 47 45 45 44 45 46 51 46 45 45 43 43 44 44 48 48 47 45 44 44 44 43 43 44 45 49 51 48 46 44 41 41 41 44 44 44 42 42 43 44 46 48 48 48 49 48 48 49 47
52 52 51 51 51 51 51 51 50 50 49 50 49 48 47 46 45 44 44 45 47 46 45 43 43 42 43 43 45 47 45 45 44 42 42 44 46 44 45 45 47 45 42 42 41 41 41 42 44 45 43 42 42 45 47 47 48 48 48 48 47 47 46
51 50 50 50 49 49 49 49 49 49 49 49 48 47 46 46 46 44 44 43 44 43 46 44 44 42 43 42 42 44 45 44 42 43 42 42 44 44 44 45 45 46 42 42 41 41 42 43 44 47 44 43 44 44 46 48 48 47 47 46 46 47 46
51 51 51 51 50 50 51 51 51 50 48 48 47 46 45 45 44 43 43 44 43 43 46 47 43 43 42 42 42 42 44 41 41 42 43 42 44 44 43 42 44 45 42 42 42 42 43 44 43 47 45 42 44 44 48 49 47 45 45 46 45 45 45
52 53 51 50 50 49 49 50 49 48 47 46 46 45 45 45 44 42 42 42 42 43 43 46 44 45 43 42 41 41 41 41 41 43 42 42 42 43 42 43 45 45 42 42 43 43 43 44 45 44 43 42 43 44 46 47 46 45 42 44 44 43 43
51 49 50 50 50 50 50 49 49 49 47 46 45 45 44 45 43 42 41 40 43 41 42 42 43 43 43 42 42 41 42 42 41 41 43 43 43 41 42 42 42 42 44 43 43 44 43 43 45 43 43 43 44 44 47 46 45 45 41 42 43 43 43